Copper Mountain, CO

5:43 AM MST on November 20, 2017 (GMT -0700)
Copper Mountain

Weather History for KCCU - April, 2014

Change the Weather History Date:

Saturday, April 5, 2014

  Actual Average Record
Temperature  
Mean Temperature 24 °F -  
Max Temperature 30 °F - 44 °F (2012)
Min Temperature 19 °F - 0 °F (2009)
Degree Days  
Heating Degree Days 40    
Month to date heating degree days  
Cooling Degree Days 0    
Month to date cooling degree days  
Moisture  
Dew Point 13 °F    
Average Humidity 66    
Maximum Humidity 80    
Minimum Humidity 40    
Precipitation  
Precipitation 0.00 in - 0.28 in (2004)
Sea Level Pressure  
Sea Level Pressure 29.96 in    
Wind  
Wind Speed 9 mph (WSW)    
Max Wind Speed 16 mph    
Max Gust Speed 30 mph    
Visibility 7 miles    
Events Snow    
T = Trace of Precipitation, MM = Missing Value Source: NWS Daily Summary

Daily Weather History Graph

Daily Weather History Graph

Search for Another Location

Airport or City:

Trip Planner

Search our weather history database for the weather conditions in past years. The results will help you decide how hot, cold, wet, or windy it might be!

Date:

Astronomy

Apr. 05, 2014 Rise Set
Actual Time 6:42 AM MDT 7:32 PM MDT
Civil Twilight 6:15 AM MDT 7:59 PM MDT
Nautical Twilight 5:43 AM MDT 8:32 PM MDT
Astronomical Twilight 5:09 AM MDT 9:05 PM MDT
Moon 10:53 AM MDT (4/5) 12:43 AM MDT (4/5)
Length of Visible Light 13h 44m
Length of Day
12h 50m
Waxing Crescent, 35% of the Moon is Illuminated
Apr 5
Waxing Crescent
Apr 7
First Quarter
Apr 15
Full
Apr 22
Last Quarter
Apr 29
New

Hourly Weather History & Observations

Time (MDT) Temp. Windchill Dew Point Humidity Pressure Visibility Wind Dir Wind Speed Gust Speed Precip Events Conditions
12:16 AM 19.4 °F 7.9 °F 10.4 °F 68% 30.00 in 10.0 mi SW 10.4 mph 16.1 mph N/A   Clear
12:36 AM 19.4 °F 6.6 °F 10.4 °F 68% 30.00 in 10.0 mi SW 12.7 mph 18.4 mph N/A   Clear
12:56 AM 21.2 °F 9.5 °F 10.4 °F 63% 30.00 in 10.0 mi SW 11.5 mph 18.4 mph N/A   Clear
1:16 AM 19.4 °F 8.6 °F 8.6 °F 63% 30.00 in 10.0 mi SW 9.2 mph - N/A   Clear
1:36 AM 21.2 °F 9.5 °F 8.6 °F 58% 30.00 in 10.0 mi SSW 11.5 mph 17.3 mph N/A   Clear
1:56 AM 19.4 °F 7.9 °F 8.6 °F 63% 30.00 in 10.0 mi WSW 10.4 mph - N/A   Clear
2:16 AM 21.2 °F 11.7 °F 8.6 °F 58% 29.99 in 10.0 mi WSW 8.1 mph 23.0 mph N/A   Scattered Clouds
2:36 AM 19.4 °F 9.5 °F 8.6 °F 63% 29.98 in 10.0 mi SSW 8.1 mph - N/A   Scattered Clouds
2:56 AM 21.2 °F 10.1 °F 8.6 °F 58% 29.98 in 10.0 mi SW 10.4 mph - N/A   Clear
3:16 AM 21.2 °F 10.9 °F 8.6 °F 58% 29.97 in 10.0 mi SW 9.2 mph - N/A   Clear
3:36 AM 19.4 °F 7.9 °F 10.4 °F 68% 29.97 in 10.0 mi SW 10.4 mph 19.6 mph N/A   Clear
3:56 AM 19.4 °F 9.5 °F 10.4 °F 68% 29.96 in 10.0 mi SW 8.1 mph 19.6 mph N/A   Scattered Clouds
4:16 AM 19.4 °F 10.4 °F 10.4 °F 68% 29.95 in 10.0 mi SW 6.9 mph - N/A   Clear
4:36 AM 19.4 °F 9.5 °F 10.4 °F 68% 29.95 in 10.0 mi WSW 8.1 mph - N/A   Clear
4:56 AM 19.4 °F 10.4 °F 10.4 °F 68% 29.95 in 10.0 mi West 6.9 mph - N/A   Clear
5:16 AM 19.4 °F 11.5 °F 10.4 °F 68% 29.95 in 10.0 mi WNW 5.8 mph - N/A   Scattered Clouds
5:36 AM 19.4 °F 11.5 °F 10.4 °F 68% 29.95 in 10.0 mi SW 5.8 mph - N/A   Scattered Clouds
5:56 AM 19.4 °F 9.5 °F 10.4 °F 68% 29.95 in 10.0 mi SW 8.1 mph - N/A Snow Light Snow
6:16 AM 19.4 °F 7.9 °F 10.4 °F 68% 29.95 in 7.0 mi SW 10.4 mph 16.1 mph N/A Snow Light Snow
6:36 AM 19.4 °F 9.5 °F 10.4 °F 68% 29.95 in 10.0 mi SSW 8.1 mph - N/A   Clear
6:56 AM 19.4 °F 7.9 °F 10.4 °F 68% 29.95 in 10.0 mi SSW 10.4 mph 20.7 mph N/A   Clear
7:16 AM 19.4 °F 7.9 °F 10.4 °F 68% 29.95 in 10.0 mi SW 10.4 mph 16.1 mph N/A   Clear
7:36 AM 19.4 °F 9.5 °F 10.4 °F 68% 29.96 in 10.0 mi SW 8.1 mph - N/A   Clear
7:56 AM 21.2 °F 10.9 °F 10.4 °F 63% 29.96 in 10.0 mi SW 9.2 mph - N/A   Clear
8:16 AM 23.0 °F 14.7 °F 10.4 °F 59% 29.97 in 10.0 mi SSW 6.9 mph - N/A   Clear
8:36 AM 23.0 °F 17.0 °F 10.4 °F 59% 29.97 in 10.0 mi SW 4.6 mph - N/A   Mostly Cloudy
8:56 AM 23.0 °F 15.8 °F 10.4 °F 59% 29.97 in 10.0 mi SW 5.8 mph - N/A   Mostly Cloudy
9:16 AM 23.0 °F 17.0 °F 10.4 °F 59% 29.97 in 10.0 mi SW 4.6 mph - N/A   Scattered Clouds
9:36 AM 24.8 °F 14.6 °F 12.2 °F 59% 29.97 in 10.0 mi West 10.4 mph - N/A   Scattered Clouds
9:56 AM 24.8 °F 16.1 °F 10.4 °F 54% 29.97 in 10.0 mi SW 8.1 mph - N/A   Scattered Clouds
10:16 AM 26.6 °F 18.2 °F 10.4 °F 51% 29.97 in 10.0 mi SW 8.1 mph - N/A   Mostly Cloudy
10:36 AM 28.4 °F 24.6 °F 10.4 °F 47% 29.97 in 10.0 mi SW 3.5 mph - N/A   Scattered Clouds
10:56 AM 28.4 °F 21.2 °F 8.6 °F 43% 29.97 in 10.0 mi WSW 6.9 mph - N/A   Scattered Clouds
11:16 AM 30.2 °F 19.3 °F 8.6 °F 40% 29.97 in 10.0 mi West 15.0 mph 19.6 mph N/A   Scattered Clouds
11:36 AM 28.4 °F 22.2 °F 6.8 °F 40% 29.97 in 10.0 mi SSW 5.8 mph 21.9 mph N/A   Mostly Cloudy
11:56 AM 28.4 °F 16.6 °F 8.6 °F 43% 29.96 in 10.0 mi WNW 16.1 mph 29.9 mph N/A   Overcast
12:16 PM 28.4 °F 22.2 °F 10.4 °F 47% 29.96 in 10.0 mi SW 5.8 mph 16.1 mph N/A   Overcast
12:36 PM 30.2 °F 26.7 °F 12.2 °F 47% 29.95 in 10.0 mi SW 3.5 mph - N/A   Overcast
12:56 PM 28.4 °F 21.2 °F 12.2 °F 51% 29.95 in 4.0 mi West 6.9 mph - N/A Snow Light Snow
1:16 PM 28.4 °F 22.2 °F 14.0 °F 55% 29.95 in 5.0 mi West 5.8 mph - N/A Snow Light Snow
1:36 PM 28.4 °F 19.7 °F 14.0 °F 55% 29.95 in 4.0 mi SW 9.2 mph - N/A Snow Light Snow
1:56 PM 28.4 °F 19.7 °F 17.6 °F 64% 29.94 in 10.0 mi South 9.2 mph - N/A   Overcast
2:16 PM 28.4 °F 20.4 °F 14.0 °F 55% 29.94 in 3.0 mi WSW 8.1 mph - N/A Snow Light Snow
2:36 PM 28.4 °F 17.5 °F 14.0 °F 55% 29.94 in 5.0 mi West 13.8 mph 23.0 mph N/A Snow Light Snow
2:56 PM 28.4 °F 17.0 °F 15.8 °F 59% 29.93 in 2.5 mi West 15.0 mph 19.6 mph N/A Snow Snow
3:16 PM 28.4 °F 24.6 °F 15.8 °F 59% 29.92 in 10.0 mi SW 3.5 mph - N/A   Overcast
3:36 PM 28.4 °F 18.5 °F 15.8 °F 59% 29.92 in 10.0 mi WNW 11.5 mph 17.3 mph N/A   Overcast
3:56 PM 24.8 °F 12.9 °F 19.4 °F 80% 29.93 in 0.5 mi West 13.8 mph - N/A Snow Snow
4:16 PM 24.8 °F 19.1 °F 17.6 °F 74% 29.93 in 0.8 mi West 4.6 mph - N/A Snow Light Snow
4:36 PM 24.8 °F 17.9 °F 17.6 °F 74% 29.93 in 1.0 mi SSE 5.8 mph - N/A Snow Light Snow
4:56 PM 24.8 °F 17.9 °F 19.4 °F 80% 29.94 in 0.5 mi West 5.8 mph - N/A Snow Snow
5:16 PM 26.6 °F 22.6 °F 19.4 °F 74% 29.94 in 0.5 mi SSE 3.5 mph - N/A Snow Snow
5:36 PM 26.6 °F 20.0 °F 19.4 °F 74% 29.94 in 1.2 mi South 5.8 mph - N/A Snow Light Snow
5:56 PM 26.6 °F 20.0 °F 19.4 °F 74% 29.94 in 0.8 mi West 5.8 mph - N/A Snow Snow
6:16 PM 24.8 °F 14.6 °F 19.4 °F 80% 29.95 in 0.2 mi West 10.4 mph - N/A Snow Snow
6:36 PM 24.8 °F 12.4 °F 19.4 °F 80% 29.95 in 1.2 mi West 15.0 mph - N/A Snow Light Snow
6:56 PM 24.8 °F 12.4 °F 19.4 °F 80% 29.95 in 1.0 mi West 15.0 mph - N/A Snow Light Snow
7:16 PM 23.0 °F 11.1 °F 17.6 °F 80% 29.96 in 7.0 mi West 12.7 mph - N/A Snow Light Snow
7:36 PM 23.0 °F 12.4 °F 17.6 °F 80% 29.96 in 10.0 mi West 10.4 mph - N/A   Overcast
7:56 PM 23.0 °F 12.4 °F 17.6 °F 80% 29.96 in 2.5 mi West 10.4 mph - N/A   Haze
8:16 PM 23.0 °F 13.1 °F 17.6 °F 80% 29.97 in 10.0 mi West 9.2 mph - N/A   Overcast
8:36 PM 23.0 °F 12.4 °F 17.6 °F 80% 29.98 in 10.0 mi West 10.4 mph - N/A   Overcast
8:56 PM 23.0 °F 12.4 °F 17.6 °F 80% 29.98 in 10.0 mi West 10.4 mph - N/A   Mostly Cloudy
9:16 PM 23.0 °F 11.7 °F 17.6 °F 80% 29.99 in 0.5 mi West 11.5 mph - N/A Snow Light Snow
9:36 PM 23.0 °F 13.1 °F 17.6 °F 80% 29.99 in 5.0 mi West 9.2 mph - N/A Snow Light Snow
9:56 PM 23.0 °F 13.1 °F 17.6 °F 80% 29.99 in 0.5 mi West 9.2 mph - N/A Snow Light Snow
10:16 PM 23.0 °F 13.9 °F 17.6 °F 80% 29.99 in 0.8 mi West 8.1 mph - N/A Snow Light Snow
10:36 PM 23.0 °F 9.6 °F 17.6 °F 80% 29.99 in 0.2 mi West 16.1 mph - N/A Snow Snow
10:56 PM 23.0 °F 10.1 °F 17.6 °F 80% 29.99 in 0.2 mi West 15.0 mph - N/A   Haze
11:16 PM 23.0 °F 10.6 °F 17.6 °F 80% 29.99 in 0.2 mi West 13.8 mph - N/A Snow Light Snow
11:36 PM 23.0 °F 10.6 °F 17.6 °F 80% 29.99 in 1.0 mi West 13.8 mph - N/A Snow Light Snow
11:56 PM 23.0 °F 10.1 °F 17.6 °F 80% 29.99 in 0.2 mi West 15.0 mph - N/A Snow Snow